Location: Arrodets-la-Barthe
(43.0306°N, 0.2829°E)
Time: 19:25:51
(UTC+00:00)

NOSS 2-3 (C) - Pass Details

Date: 24 October 2021
Orbit: 536 x 1675 km, 63.3° (Epoch: 25 November)

Event Time Altitude Azimuth Distance (km) Brightness Sun altitude
Rises 18:20:24 0° 224° (SW) 2,674 7.6 -15.0°
Reaches altitude 10° 18:22:30 10° 228° (SW) 1,806 6.7 -15.3°
Maximum altitude 18:26:24 61° 310° (NW) 665 3.9 -16.1°
Enters shadow 18:30:51 11° 31° (NNE) 2,064 5.9 -16.9°
